Home   Weather   Punta Cana   Past weeks

Flag for Dominican Republic Past Weather in Punta Cana, Dominican Republic — Yesterday and Last 2 Weeks

Now
70 °F

Scattered clouds.


Feels Like: 70 °F
Forecast: 73 / 83 °F
Wind: No wind

Location: Punta Cana

Current Time: Feb 26, 2017 at 8:40:45 am

Latest Report: Feb 26, 2017 at 7:50 am


Visibility: N/A

Pressure: 30.04 "Hg

Humidity: 94%

Dew Point: 68 °F

Location of Punta CanaLocation

Past Weather in Punta Cana — Graph

°F

Punta Cana Temperature Yesterday

Maximum temperature yesterday: 82 °F (at 1:00 pm)
Minimum temperature yesterday: 66 °F (at 5:00 am)
Average temperature yesterday: 75 °F

High & Low Weather Summary for the Past Weeks

 TemperatureHumidityPressure
High82 °F (Feb 11, 11:00 am)100% (Feb 13, 5:00 am)30.15 "Hg (Feb 13, 5:00 am)
Low64 °F (Feb 17, 6:00 am)53% (Feb 24, 2:00 am)29.83 "Hg (Feb 22, 5:00 am)
Average75 °F82%29.99 "Hg
* Reported Feb 11 7:00 am — Feb 26 7:00 am, Punta Cana, Weather by CustomWeather, © 2017

Note: Actual official high and low records may vary slightly from our data, if they occured in-between our weather recording intervals... More about our weather records

Advertising

Punta Cana Weather History for the Previous 24 Hours

Scroll right to see more
 ConditionsComfort  
Time TempWeatherWind HumidityBarometerVisibility
7:00 am
Sun, Feb 26
70 °FScattered clouds.3 mph94%30.01 "HgN/A
6:00 am72 °FPassing clouds.3 mph88%29.98 "HgN/A
5:00 am73 °FPassing clouds.No wind83%30.01 "HgN/A
4:00 am73 °FPassing clouds.No wind83%30.01 "HgN/A
2:45 am73 °FPassing clouds.6 mph83%30.04 "HgN/A
1:45 am73 °FPassing clouds.12 mph83%30.07 "HgN/A
12:45 am75 °FPassing clouds.12 mph78%30.07 "HgN/A
11:45 pm
Sat, Feb 25
75 °FPassing clouds.12 mph78%30.04 "HgN/A
10:47 pm75 °FPassing clouds.12 mph78%30.04 "HgN/A
10:00 pm75 °FPassing clouds.6 mph78%30.01 "HgN/A
9:00 pm77 °FPassing clouds.6 mph79%30.01 "HgN/A
8:00 pm73 °FPassing clouds.6 mph83%29.98 "HgN/A
7:00 pm77 °FPassing clouds.7 mph74%29.98 "HgN/A
6:00 pm79 °FPassing clouds.9 mph70%29.95 "HgN/A
5:00 pm82 °FPassing clouds.9 mph62%29.95 "HgN/A
4:00 pm81 °FPassing clouds.12 mph66%29.95 "HgN/A
3:00 pm82 °FPassing clouds.9 mph58%29.95 "HgN/A
2:00 pm81 °FPassing clouds.9 mph70%29.98 "HgN/A
1:00 pm82 °FPassing clouds.9 mph66%30.01 "HgN/A
12:00 pm81 °FPassing clouds.12 mph70%30.04 "HgN/A
11:00 am81 °FPassing clouds.9 mph70%30.04 "HgN/A
10:00 am81 °FPassing clouds.7 mph66%30.01 "HgN/A
9:00 am79 °FPassing clouds.6 mph74%30.01 "HgN/A
8:00 am68 °FPassing clouds.No wind100%29.98 "HgN/A
Weather by CustomWeather, © 2017

See weather overviewHow to use our weather pages

LIVE ANNULAR SOLAR ECLIPSE – Watch the eclipse as it happens